Change the Weather History Date:

Thursday, March 7, 2013

  Actual Average Record
Temperature  
Mean Temperature 56 °F -  
Max Temperature 62 °F 58 °F 75 °F (2015)
Min Temperature 50 °F 36 °F 28 °F (2011)
Degree Days  
Heating Degree Days 9    
Growing Degree Days 6 (Base 50)    
Moisture  
Dew Point 46 °F    
Average Humidity 71    
Maximum Humidity 82    
Minimum Humidity 52    
Precipitation  
Precipitation 0.00 in - - ()
Sea Level Pressure  
Sea Level Pressure 29.45 in    
Wind  
Wind Speed 12 mph ()    
Max Wind Speed 26 mph    
Max Gust Speed 40 mph    
Visibility 6.0 miles    
Events Rain , Thunderstorm    
Averages and records for this station are not official NWS values.
T = Trace of Precipitation, MM = Missing Value Source: Averaged Metar Reports

Daily Weather History Graph

Daily Weather History Graph

Search for Another Location

Airport or City:

Trip Planner

Search our weather history database for the weather conditions in past years. The results will help you decide how hot, cold, wet, or windy it might be!

Date:

Astronomy

Mar. 07, 2013 Rise Set
Actual Time 7:36 AM CET 7:07 PM CET
Civil Twilight 7:08 AM CET 7:36 PM CET
Nautical Twilight 6:35 AM CET 8:08 PM CET
Astronomical Twilight 6:02 AM CET 8:41 PM CET
Moon 4:30 AM CET (3/7) 2:34 PM CET (3/7)
Length of Visible Light 12h 27m
Length of Day
11h 31m
Waning Crescent, 22% of the Moon is Illuminated
Mar 7
Waning Crescent
Mar 11
New
Mar 19
First Quarter
Mar 27
Full
Apr 3
Last Quarter

Hourly Weather History & Observations

Time (CET) Temp. Dew Point Humidity Pressure Visibility Wind Dir Wind Speed Gust Speed Precip Events Conditions
12:00 AM 53.6 °F 46.4 °F 77% 29.50 in 6.2 mi Variable 2.3 mph - N/A   Mostly Cloudy
12:30 AM 53.6 °F 46.4 °F 77% 29.50 in 6.2 mi Variable 2.3 mph - N/A   Mostly Cloudy
1:00 AM 53.6 °F 46.4 °F 77% 29.50 in 6.2 mi SW 5.8 mph - N/A   Scattered Clouds
1:30 AM 53.6 °F 46.4 °F 77% 29.50 in 6.2 mi SSW 3.5 mph - N/A   Scattered Clouds
2:00 AM 53.6 °F 44.6 °F 72% 29.50 in 6.2 mi SW 8.1 mph - N/A   Scattered Clouds
2:30 AM 53.6 °F 44.6 °F 72% 29.53 in 6.2 mi SW 18.4 mph - N/A   Scattered Clouds
3:00 AM 51.8 °F 44.6 °F 76% 29.50 in 6.2 mi SW 17.3 mph - N/A   Scattered Clouds
3:30 AM 51.8 °F 44.6 °F 76% 29.50 in 6.2 mi SW 19.6 mph - N/A   Scattered Clouds
4:00 AM 53.6 °F 46.4 °F 77% 29.53 in 6.2 mi SSW 19.6 mph - N/A Rain Light Rain
4:30 AM 51.8 °F 46.4 °F 82% 29.53 in 6.2 mi SW 15.0 mph - N/A   Mostly Cloudy
5:00 AM 53.6 °F 46.4 °F 77% 29.53 in 6.2 mi SSW 13.8 mph - N/A   Mostly Cloudy
5:30 AM 53.6 °F 46.4 °F 77% 29.50 in 6.2 mi SW 15.0 mph - N/A   Mostly Cloudy
6:00 AM 53.6 °F 46.4 °F 77% 29.53 in 6.2 mi SW 16.1 mph - N/A   Mostly Cloudy
6:30 AM 53.6 °F 46.4 °F 77% 29.50 in 6.2 mi SW 11.5 mph - N/A   Scattered Clouds
7:00 AM 53.6 °F 46.4 °F 77% 29.50 in 6.2 mi SW 11.5 mph - N/A   Scattered Clouds
7:30 AM 53.6 °F 46.4 °F 77% 29.50 in 6.2 mi SW 18.4 mph - N/A   Mostly Cloudy
8:00 AM 53.6 °F 46.4 °F 77% 29.50 in 6.2 mi SW 26.5 mph 39.1 mph N/A   Scattered Clouds
8:30 AM 53.6 °F 46.4 °F 77% 29.53 in 6.2 mi SW 18.4 mph - N/A   Scattered Clouds
9:00 AM 53.6 °F 46.4 °F 77% 29.53 in 6.2 mi SSW 15.0 mph - N/A   Scattered Clouds
9:30 AM 55.4 °F 46.4 °F 72% 29.53 in 6.2 mi SSW 15.0 mph - N/A   Scattered Clouds
10:00 AM 53.6 °F 46.4 °F 77% 29.53 in 6.2 mi SSW 12.7 mph - N/A   Scattered Clouds
10:30 AM 55.4 °F 48.2 °F 77% 29.50 in 6.2 mi SSW 10.4 mph 21.9 mph N/A   Scattered Clouds
11:00 AM 57.2 °F 48.2 °F 72% 29.53 in 6.2 mi SSW 12.7 mph - N/A   Scattered Clouds
11:30 AM 59.0 °F 46.4 °F 63% 29.50 in 6.2 mi SSW 11.5 mph - N/A   Scattered Clouds
12:00 PM 60.8 °F 46.4 °F 59% 29.47 in 6.2 mi South 10.4 mph - N/A   Scattered Clouds
12:30 PM 60.8 °F 42.8 °F 52% 29.44 in 6.2 mi SSE 15.0 mph - N/A   Mostly Cloudy
1:00 PM 60.8 °F 44.6 °F 55% 29.44 in 6.2 mi SSE 15.0 mph - N/A   Mostly Cloudy
1:30 PM 62.6 °F 44.6 °F 52% 29.42 in 6.2 mi SSE 15.0 mph - N/A   Mostly Cloudy
2:00 PM 60.8 °F 50.0 °F 68% 29.39 in 6.2 mi SSE 13.8 mph - N/A Rain Light Rain
2:30 PM 62.6 °F 48.2 °F 59% 29.39 in 6.2 mi SSE 17.3 mph - N/A Rain Light Rain
3:00 PM 62.6 °F 48.2 °F 59% 29.39 in 6.2 mi South 17.3 mph - N/A   Mostly Cloudy
3:30 PM 62.6 °F 48.2 °F 59% 29.36 in 6.2 mi South 17.3 mph - N/A   Mostly Cloudy
4:00 PM 62.6 °F 50.0 °F 63% 29.36 in 6.2 mi South 13.8 mph - N/A   Mostly Cloudy
4:30 PM 62.6 °F 48.2 °F 59% 29.33 in 6.2 mi SSE 15.0 mph 26.5 mph N/A   Scattered Clouds
5:09 PM 59.0 °F 48.2 °F 67% 29.36 in 1.6 mi West 23.0 mph - N/A Rain , Thunderstorm Light Thunderstorms and Rain
5:14 PM 55.4 °F 48.2 °F 77% 29.36 in 3.7 mi West 24.2 mph 39.1 mph N/A Rain , Thunderstorm Light Thunderstorms and Rain
5:30 PM 55.4 °F 48.2 °F 77% 29.36 in 5.6 mi SW 16.1 mph - N/A Rain , Thunderstorm Light Thunderstorms and Rain
5:49 PM 57.2 °F 44.6 °F 63% 29.33 in 6.2 mi SSW 13.8 mph 26.5 mph N/A   Scattered Clouds
6:00 PM 57.2 °F 44.6 °F 63% 29.36 in 6.2 mi SW 20.7 mph - N/A   Scattered Clouds
6:30 PM 55.4 °F 46.4 °F 72% 29.36 in 6.2 mi WSW 15.0 mph 27.6 mph N/A   Scattered Clouds
7:00 PM 55.4 °F 44.6 °F 67% 29.33 in 6.2 mi SSW 23.0 mph 36.8 mph N/A   Scattered Clouds
7:30 PM 55.4 °F 44.6 °F 67% 29.36 in 6.2 mi SSW 26.5 mph 40.3 mph N/A   Scattered Clouds
8:00 PM 53.6 °F 44.6 °F 72% 29.36 in 6.2 mi SSW 25.3 mph 38.0 mph N/A   Scattered Clouds
8:30 PM 53.6 °F 44.6 °F 72% 29.36 in 6.2 mi SW 20.7 mph - N/A   Scattered Clouds
9:30 PM 55.4 °F 42.8 °F 63% 29.42 in 6.2 mi WSW 20.7 mph 32.2 mph N/A   Scattered Clouds
10:00 PM 51.8 °F 44.6 °F 76% 29.47 in 6.2 mi West 5.8 mph - N/A   Mostly Cloudy
10:30 PM 51.8 °F 42.8 °F 71% 29.50 in 6.2 mi West 8.1 mph - N/A   Mostly Cloudy
11:00 PM 50.0 °F 42.8 °F 76% 29.53 in 6.2 mi WSW 8.1 mph - N/A   Mostly Cloudy
11:30 PM 50.0 °F 42.8 °F 76% 29.53 in 6.2 mi SW 5.8 mph - N/A   Scattered Clouds